﻿測定場所 (Monitoring sites),日付 (Measurement date),時間 (Measurement time),線量率 最大値 (max) μGy/h,線量率 最小値 (min) μGy/h,線量率 平均値 (average) μGy/h,
新宿 (Shinjuku),2011-06-05,23:00～23:59,0.0724,0.0647,0.0690,
新宿 (Shinjuku),2011-06-05,22:00～22:59,0.0753,0.0659,0.0716,
新宿 (Shinjuku),2011-06-05,21:00～21:59,0.0708,0.0573,0.0642,
新宿 (Shinjuku),2011-06-05,20:00～20:59,0.0630,0.0574,0.0599,
新宿 (Shinjuku),2011-06-05,19:00～19:59,0.0624,0.0575,0.0602,
新宿 (Shinjuku),2011-06-05,18:00～18:59,0.0636,0.0576,0.0604,
新宿 (Shinjuku),2011-06-05,17:00～17:59,0.0622,0.0566,0.0599,
新宿 (Shinjuku),2011-06-05,16:00～16:59,0.0621,0.0569,0.0599,
新宿 (Shinjuku),2011-06-05,15:00～15:59,0.0638,0.0573,0.0603,
新宿 (Shinjuku),2011-06-05,14:00～14:59,0.0623,0.0571,0.0599,
新宿 (Shinjuku),2011-06-05,13:00～13:59,0.0621,0.0570,0.0599,
新宿 (Shinjuku),2011-06-05,12:00～12:59,0.0627,0.0569,0.0603,
新宿 (Shinjuku),2011-06-05,11:00～11:59,0.0628,0.0589,0.0610,
新宿 (Shinjuku),2011-06-05,10:00～10:59,0.0638,0.0580,0.0611,
新宿 (Shinjuku),2011-06-05,09:00～09:59,0.0624,0.0576,0.0603,
新宿 (Shinjuku),2011-06-05,08:00～08:59,0.0639,0.0581,0.0611,
新宿 (Shinjuku),2011-06-05,07:00～07:59,0.0636,0.0589,0.0611,
新宿 (Shinjuku),2011-06-05,06:00～06:59,0.0634,0.0579,0.0611,
新宿 (Shinjuku),2011-06-05,05:00～05:59,0.0633,0.0585,0.0607,
新宿 (Shinjuku),2011-06-05,04:00～04:59,0.0633,0.0581,0.0606,
新宿 (Shinjuku),2011-06-05,03:00～03:59,0.0638,0.0589,0.0607,
新宿 (Shinjuku),2011-06-05,02:00～02:59,0.0632,0.0573,0.0607,
新宿 (Shinjuku),2011-06-05,01:00～01:59,0.0629,0.0568,0.0605,
新宿 (Shinjuku),2011-06-05,00:00～00:59,0.0631,0.0570,0.0600,
新宿 (Shinjuku),2011-06-04,23:00～23:59,0.0627,0.0567,0.0603,
新宿 (Shinjuku),2011-06-04,22:00～22:59,0.0637,0.0585,0.0603,
新宿 (Shinjuku),2011-06-04,21:00～21:59,0.0625,0.0575,0.0599,
新宿 (Shinjuku),2011-06-04,20:00～20:59,0.0631,0.0572,0.0599,
新宿 (Shinjuku),2011-06-04,19:00～19:59,0.0611,0.0565,0.0594,
新宿 (Shinjuku),2011-06-04,18:00～18:59,0.0623,0.0567,0.0596,
新宿 (Shinjuku),2011-06-04,17:00～17:59,0.0617,0.0573,0.0595,
新宿 (Shinjuku),2011-06-04,16:00～16:59,0.0628,0.0577,0.0604,
新宿 (Shinjuku),2011-06-04,15:00～15:59,0.0631,0.0573,0.0601,
新宿 (Shinjuku),2011-06-04,14:00～14:59,0.0626,0.0583,0.0604,
新宿 (Shinjuku),2011-06-04,13:00～13:59,0.0627,0.0579,0.0605,
新宿 (Shinjuku),2011-06-04,12:00～12:59,0.0625,0.0576,0.0605,
新宿 (Shinjuku),2011-06-04,11:00～11:59,0.0622,0.0576,0.0600,
新宿 (Shinjuku),2011-06-04,10:00～10:59,0.0638,0.0577,0.0605,
新宿 (Shinjuku),2011-06-04,09:00～09:59,0.0624,0.0575,0.0601,
新宿 (Shinjuku),2011-06-04,08:00～08:59,0.0632,0.0581,0.0603,
新宿 (Shinjuku),2011-06-04,07:00～07:59,0.0626,0.0581,0.0607,
新宿 (Shinjuku),2011-06-04,06:00～06:59,0.0638,0.0569,0.0606,
新宿 (Shinjuku),2011-06-04,05:00～05:59,0.0630,0.0574,0.0603,
新宿 (Shinjuku),2011-06-04,04:00～04:59,0.0617,0.0572,0.0596,
新宿 (Shinjuku),2011-06-04,03:00～03:59,0.0616,0.0572,0.0598,
新宿 (Shinjuku),2011-06-04,02:00～02:59,0.0617,0.0565,0.0592,
新宿 (Shinjuku),2011-06-04,01:00～01:59,0.0619,0.0569,0.0592,
新宿 (Shinjuku),2011-06-04,00:00～00:59,0.0637,0.0570,0.0593,
新宿 (Shinjuku),2011-06-03,23:00～23:59,0.0617,0.0569,0.0593,
新宿 (Shinjuku),2011-06-03,22:00～22:59,0.0614,0.0569,0.0594,
新宿 (Shinjuku),2011-06-03,21:00～21:59,0.0634,0.0564,0.0593,
新宿 (Shinjuku),2011-06-03,20:00～20:59,0.0620,0.0568,0.0593,
新宿 (Shinjuku),2011-06-03,19:00～19:59,0.0631,0.0569,0.0593,
新宿 (Shinjuku),2011-06-03,18:00～18:59,0.0620,0.0572,0.0594,
新宿 (Shinjuku),2011-06-03,17:00～17:59,0.0621,0.0565,0.0591,
新宿 (Shinjuku),2011-06-03,16:00～16:59,0.0620,0.0572,0.0594,
新宿 (Shinjuku),2011-06-03,15:00～15:59,0.0630,0.0574,0.0597,
新宿 (Shinjuku),2011-06-03,14:00～14:59,0.0618,0.0569,0.0600,
新宿 (Shinjuku),2011-06-03,13:00～13:59,0.0626,0.0577,0.0602,
新宿 (Shinjuku),2011-06-03,12:00～12:59,0.0623,0.0577,0.0601,
新宿 (Shinjuku),2011-06-03,11:00～11:59,0.0620,0.0569,0.0596,
新宿 (Shinjuku),2011-06-03,10:00～10:59,0.0628,0.0571,0.0597,
新宿 (Shinjuku),2011-06-03,09:00～09:59,0.0631,0.0576,0.0600,
新宿 (Shinjuku),2011-06-03,08:00～08:59,0.0635,0.0575,0.0601,
新宿 (Shinjuku),2011-06-03,07:00～07:59,0.0627,0.0579,0.0604,
新宿 (Shinjuku),2011-06-03,06:00～06:59,0.0627,0.0566,0.0601,
新宿 (Shinjuku),2011-06-03,05:00～05:59,0.0629,0.0571,0.0601,
新宿 (Shinjuku),2011-06-03,04:00～04:59,0.0628,0.0569,0.0597,
新宿 (Shinjuku),2011-06-03,03:00～03:59,0.0620,0.0569,0.0595,
新宿 (Shinjuku),2011-06-03,02:00～02:59,0.0621,0.0564,0.0594,
新宿 (Shinjuku),2011-06-03,01:00～01:59,0.0632,0.0562,0.0595,
新宿 (Shinjuku),2011-06-03,00:00～00:59,0.0644,0.0562,0.0594,
新宿 (Shinjuku),2011-06-02,23:00～23:59,0.0622,0.0575,0.0596,
新宿 (Shinjuku),2011-06-02,22:00～22:59,0.0634,0.0569,0.0601,
新宿 (Shinjuku),2011-06-02,21:00～21:59,0.0636,0.0578,0.0607,
新宿 (Shinjuku),2011-06-02,20:00～20:59,0.0636,0.0572,0.0612,
新宿 (Shinjuku),2011-06-02,19:00～19:59,0.0622,0.0572,0.0600,
新宿 (Shinjuku),2011-06-02,18:00～18:59,0.0627,0.0571,0.0596,
新宿 (Shinjuku),2011-06-02,17:00～17:59,0.0624,0.0581,0.0602,
新宿 (Shinjuku),2011-06-02,16:00～16:59,0.0644,0.0583,0.0613,
新宿 (Shinjuku),2011-06-02,15:00～15:59,0.0660,0.0593,0.0624,
新宿 (Shinjuku),2011-06-02,14:00～14:59,0.0666,0.0586,0.0623,
新宿 (Shinjuku),2011-06-02,13:00～13:59,0.0638,0.0579,0.0608,
新宿 (Shinjuku),2011-06-02,12:00～12:59,0.0624,0.0578,0.0599,
新宿 (Shinjuku),2011-06-02,11:00～11:59,0.0635,0.0583,0.0605,
新宿 (Shinjuku),2011-06-02,10:00～10:59,0.0637,0.0576,0.0609,
新宿 (Shinjuku),2011-06-02,09:00～09:59,0.0624,0.0576,0.0606,
新宿 (Shinjuku),2011-06-02,08:00～08:59,0.0650,0.0575,0.0603,
新宿 (Shinjuku),2011-06-02,07:00～07:59,0.0645,0.0572,0.0600,
新宿 (Shinjuku),2011-06-02,06:00～06:59,0.0629,0.0577,0.0603,
新宿 (Shinjuku),2011-06-02,05:00～05:59,0.0637,0.0579,0.0602,
新宿 (Shinjuku),2011-06-02,04:00～04:59,0.0626,0.0579,0.0598,
新宿 (Shinjuku),2011-06-02,03:00～03:59,0.0626,0.0571,0.0596,
新宿 (Shinjuku),2011-06-02,02:00～02:59,0.0614,0.0570,0.0595,
新宿 (Shinjuku),2011-06-02,01:00～01:59,0.0624,0.0580,0.0599,
新宿 (Shinjuku),2011-06-02,00:00～00:59,0.0624,0.0566,0.0598,
新宿 (Shinjuku),2011-06-01,23:00～23:59,0.0632,0.0568,0.0597,
新宿 (Shinjuku),2011-06-01,22:00～22:59,0.0621,0.0570,0.0596,
新宿 (Shinjuku),2011-06-01,21:00～21:59,0.0618,0.0576,0.0594,
新宿 (Shinjuku),2011-06-01,20:00～20:59,0.0626,0.0558,0.0595,
新宿 (Shinjuku),2011-06-01,19:00～19:59,0.0618,0.0562,0.0595,
新宿 (Shinjuku),2011-06-01,18:00～18:59,0.0631,0.0560,0.0597,
新宿 (Shinjuku),2011-06-01,17:00～17:59,0.0622,0.0566,0.0594,
新宿 (Shinjuku),2011-06-01,16:00～16:59,0.0617,0.0565,0.0594,
新宿 (Shinjuku),2011-06-01,15:00～15:59,0.0617,0.0530,0.0581,
新宿 (Shinjuku),2011-06-01,14:00～14:59,0.0632,0.0562,0.0597,
新宿 (Shinjuku),2011-06-01,13:00～13:59,0.0629,0.0572,0.0596,
新宿 (Shinjuku),2011-06-01,12:00～12:59,0.0616,0.0574,0.0596,
新宿 (Shinjuku),2011-06-01,11:00～11:59,0.0619,0.0572,0.0596,
新宿 (Shinjuku),2011-06-01,10:00～10:59,0.0630,0.0576,0.0602,
新宿 (Shinjuku),2011-06-01,09:00～09:59,0.0620,0.0573,0.0598,
新宿 (Shinjuku),2011-06-01,08:00～08:59,0.0629,0.0573,0.0598,
新宿 (Shinjuku),2011-06-01,07:00～07:59,0.0618,0.0562,0.0592,
新宿 (Shinjuku),2011-06-01,06:00～06:59,0.0614,0.0564,0.0593,
新宿 (Shinjuku),2011-06-01,05:00～05:59,0.0613,0.0568,0.0592,
新宿 (Shinjuku),2011-06-01,04:00～04:59,0.0621,0.0563,0.0592,
新宿 (Shinjuku),2011-06-01,03:00～03:59,0.0612,0.0555,0.0591,
新宿 (Shinjuku),2011-06-01,02:00～02:59,0.0614,0.0556,0.0589,
新宿 (Shinjuku),2011-06-01,01:00～01:59,0.0614,0.0562,0.0589,
新宿 (Shinjuku),2011-06-01,00:00～00:59,0.0624,0.0571,0.0590,
新宿 (Shinjuku),2011-05-31,23:00～23:59,0.0619,0.0565,0.0588,
新宿 (Shinjuku),2011-05-31,22:00～22:59,0.0608,0.0570,0.0589,
新宿 (Shinjuku),2011-05-31,21:00～21:59,0.0619,0.0568,0.0590,
新宿 (Shinjuku),2011-05-31,20:00～20:59,0.0620,0.0562,0.0589,
新宿 (Shinjuku),2011-05-31,19:00～19:59,0.0619,0.0565,0.0591,
新宿 (Shinjuku),2011-05-31,18:00～18:59,0.0619,0.0567,0.0590,
新宿 (Shinjuku),2011-05-31,17:00～17:59,0.0616,0.0562,0.0589,
新宿 (Shinjuku),2011-05-31,16:00～16:59,0.0617,0.0558,0.0594,
新宿 (Shinjuku),2011-05-31,15:00～15:59,0.0635,0.0566,0.0597,
新宿 (Shinjuku),2011-05-31,14:00～14:59,0.0620,0.0571,0.0596,
新宿 (Shinjuku),2011-05-31,13:00～13:59,0.0628,0.0575,0.0600,
新宿 (Shinjuku),2011-05-31,12:00～12:59,0.0619,0.0573,0.0597,
新宿 (Shinjuku),2011-05-31,11:00～11:59,0.0635,0.0581,0.0605,
新宿 (Shinjuku),2011-05-31,10:00～10:59,0.0628,0.0575,0.0602,
新宿 (Shinjuku),2011-05-31,09:00～09:59,0.0621,0.0565,0.0601,
新宿 (Shinjuku),2011-05-31,08:00～08:59,0.0623,0.0572,0.0600,
新宿 (Shinjuku),2011-05-31,07:00～07:59,0.0633,0.0565,0.0596,
新宿 (Shinjuku),2011-05-31,06:00～06:59,0.0617,0.0573,0.0594,
新宿 (Shinjuku),2011-05-31,05:00～05:59,0.0630,0.0569,0.0599,
新宿 (Shinjuku),2011-05-31,04:00～04:59,0.0626,0.0576,0.0602,
新宿 (Shinjuku),2011-05-31,03:00～03:59,0.0624,0.0567,0.0596,
新宿 (Shinjuku),2011-05-31,02:00～02:59,0.0625,0.0568,0.0597,
新宿 (Shinjuku),2011-05-31,01:00～01:59,0.0616,0.0569,0.0596,
新宿 (Shinjuku),2011-05-31,00:00～00:59,0.0632,0.0572,0.0597,
新宿 (Shinjuku),2011-05-30,23:00～23:59,0.0639,0.0576,0.0599,
新宿 (Shinjuku),2011-05-30,22:00～22:59,0.0627,0.0572,0.0597,
新宿 (Shinjuku),2011-05-30,21:00～21:59,0.0639,0.0575,0.0598,
新宿 (Shinjuku),2011-05-30,20:00～20:59,0.0631,0.0574,0.0597,
新宿 (Shinjuku),2011-05-30,19:00～19:59,0.0628,0.0565,0.0597,
新宿 (Shinjuku),2011-05-30,18:00～18:59,0.0622,0.0565,0.0595,
新宿 (Shinjuku),2011-05-30,17:00～17:59,0.0631,0.0574,0.0600,
新宿 (Shinjuku),2011-05-30,16:00～16:59,0.0631,0.0572,0.0598,
新宿 (Shinjuku),2011-05-30,15:00～15:59,0.0624,0.0576,0.0599,
新宿 (Shinjuku),2011-05-30,14:00～14:59,0.0635,0.0581,0.0604,
新宿 (Shinjuku),2011-05-30,13:00～13:59,0.0626,0.0584,0.0603,
新宿 (Shinjuku),2011-05-30,12:00～12:59,0.0632,0.0572,0.0604,
新宿 (Shinjuku),2011-05-30,11:00～11:59,0.0635,0.0574,0.0600,
新宿 (Shinjuku),2011-05-30,10:00～10:59,0.0644,0.0576,0.0605,
新宿 (Shinjuku),2011-05-30,09:00～09:59,0.0638,0.0586,0.0611,
新宿 (Shinjuku),2011-05-30,08:00～08:59,0.0652,0.0589,0.0622,
新宿 (Shinjuku),2011-05-30,07:00～07:59,0.0655,0.0594,0.0630,
新宿 (Shinjuku),2011-05-30,06:00～06:59,0.0659,0.0604,0.0631,
新宿 (Shinjuku),2011-05-30,05:00～05:59,0.0646,0.0602,0.0621,
新宿 (Shinjuku),2011-05-30,04:00～04:59,0.0647,0.0593,0.0618,
新宿 (Shinjuku),2011-05-30,03:00～03:59,0.0652,0.0598,0.0621,
新宿 (Shinjuku),2011-05-30,02:00～02:59,0.0644,0.0586,0.0616,
新宿 (Shinjuku),2011-05-30,01:00～01:59,0.0653,0.0593,0.0620,
新宿 (Shinjuku),2011-05-30,00:00～00:59,0.0643,0.0600,0.0621,
